{"data":{"norad_id":62316,"intl_designator":"2024-239R","name":"STARLINK-32596","alt_names":[],"object_type":"PAYLOAD","status":"ACTIVE","operator":null,"country":"US","launch_date":"2024-12-13","launch_site_code":"AFWTR","launch_vehicle":null,"mission":null,"orbit_class":"UNKNOWN","rcs_meters":null,"size_class":null,"mass_kg":null,"dimensions":null,"purposes":["comms"],"wikipedia_slug":null,"has_3d_model":false,"image_url":null,"decayed_at":null,"tle_current":{"epoch":"2026-09-21T18:01:35.103072Z","epoch_age_seconds":69265,"freshness":"FRESH","line1":"1 62316U 24239R   26264.75110073  .00023079  00000+0  69204-3 0  9996","line2":"2 62316  53.1609 359.5634 0001249  63.0098 297.1032 15.34401979 99455","mean_motion":15.34401979,"eccentricity":0.0001249,"inclination_deg":53.1609,"raan_deg":359.5634,"arg_perigee_deg":63.0098,"mean_anomaly_deg":297.1032,"bstar":0.00069204,"rev_number":9945,"period_min":93.84763704088,"perigee_km":461.84293799703,"apogee_km":463.55177841971,"semimajor_km":6840.8343582084,"source":"CELESTRAK","updated_at":"2026-09-22T09:00:49.574044Z"}}}